Tracking 33190 objects as of 9-Feb-2026
HD Live streaming from Space Station
objects crossing your sky now

STARLINK-3362

Track STARLINK-3362 now!
10-day predictions
STARLINK-3362 is classified as:


NORAD ID: 51108
Int'l Code: 2022-005E
Perigee: 546.0 km
Apogee: 547.8 km
Inclination: 53.2 °
Period: 95.4 minutes
Semi major axis: 6917 km
RCS: Unknown
Launch date: January 19, 2022
Source: United States (US)
Launch site: AIR FORCE EASTERN TEST RANGE (AFETR)
Your satellite tracking list
Your tracking list is empty




NASA's NSSDC Master Catalog

Two Line Element Set (TLE):
1 51108U 22005E   26039.43197656  .00000540  00000-0  52029-4 0  9996
2 51108  53.2167  60.4613 0001254  92.5175 267.5961 15.08839250224467
Source of the keplerian elements: AFSPC